Location: G?julap?du
(16.5372°N, 81.0979°E)
Time: 23:53:29
(UTC+00:00)

Cosmos 2237 Rocket - Pass Details

Date: 14 April 2026
Orbit: 833 x 850 km, 71.0° (Epoch: 9 May)

Event Time Altitude Azimuth Distance (km) Brightness Sun altitude
Rises 14:39:46 0° 196° (SSW) 3,377 5.3 -26.1°
Reaches altitude 10° 14:42:12 10° 197° (SSW) 2,446 4.6 -26.6°
Maximum altitude 14:47:49 88° 285° (WNW) 846 2.1 -27.9°
Drops below altitude 10° 14:53:29 10° 16° (NNE) 2,462 4.7 -29.1°
Sets 14:55:56 0° 17° (NNE) 3,400 5.4 -29.7°
